Weather History for Hoquiam, WA

Change the Weather History Date:

Friday, June 28, 2013

  Actual Average Record
Temperature  
Mean Temperature 68 °F 58 °F  
Max Temperature 77 °F 65 °F 90 °F (1995)
Min Temperature 59 °F 52 °F 39 °F (1971)
Degree Days  
Heating Degree Days 0 7  
Month to date heating degree days 175 231  
Since 1 June heating degree days 175 231  
Cooling Degree Days 3 0  
Month to date cooling degree days 3 0  
Year to date cooling degree days 6 1  
Since 1 June cooling degree days 3 0  
Growing Degree Days 17 (Base 50)    
Moisture  
Dew Point 61 °F    
Average Humidity 85    
Maximum Humidity 100    
Minimum Humidity 69    
Precipitation  
Precipitation 0.00 in 0.06 in 1.06 in (2002)
Month to date precipitation 2.98 2.14  
Year to date precipitation 32.56 35.06  
Sea Level Pressure  
Sea Level Pressure 30.13 in    
Wind  
Wind Speed 7 mph (SW)    
Max Wind Speed 18 mph    
Max Gust Speed 22 mph    
Visibility 10 miles    
Events      
T = Trace of Precipitation, MM = Missing Value Source: NWS Daily Summary

Daily Weather History Graph

Daily Weather History Graph

Search for Another Location

Airport:

Trip Planner

Search our weather history database for the weather conditions in past years. The results will help you decide how hot, cold, wet, or windy it might be!

Date:

Astronomy

Jun. 28, 2013 Rise Set
Actual Time 5:23 AM PDT 9:14 PM PDT
Civil Twilight 4:43 AM PDT 9:54 PM PDT
Nautical Twilight 3:49 AM PDT 10:48 PM PDT
Astronomical Twilight 2:29 AM PDT 12:08 AM PDT
Moon No Moon Rise 12:02 PM PDT (6/28)
Length of Visible Light 17h 10m
Length of Day
15h 51m
Waning Gibbous, 65% of the Moon is Illuminated
Jun 28
Waning Gibbous
Jun 29
Last Quarter
Jul 8
New
Jul 15
First Quarter
Jul 22
Full

Hourly Weather History & Observations

Time (PDT) Temp. Dew Point Humidity Pressure Visibility Wind Dir Wind Speed Gust Speed Precip Events Conditions
12:53 AM 61.0 °F 60.1 °F 97% 30.19 in 10.0 mi Calm Calm - N/A   Mostly Cloudy
1:44 AM 60.8 °F 60.8 °F 100% 30.17 in 9.0 mi Calm Calm - N/A   Mostly Cloudy
1:53 AM 61.0 °F 60.1 °F 97% 30.18 in 10.0 mi Calm Calm - N/A   Mostly Cloudy
2:13 AM 60.8 °F 60.8 °F 100% 30.17 in 10.0 mi Calm Calm - N/A   Scattered Clouds
2:53 AM 61.0 °F 59.0 °F 93% 30.18 in 7.0 mi Calm Calm - N/A   Mostly Cloudy
3:53 AM 60.1 °F 59.0 °F 96% 30.17 in 7.0 mi Calm Calm - N/A   Clear
4:53 AM 60.1 °F 59.0 °F 96% 30.15 in 10.0 mi NE 4.6 mph - N/A   Clear
5:53 AM 59.0 °F 57.9 °F 96% 30.14 in 10.0 mi ENE 8.1 mph - N/A   Clear
6:53 AM 61.0 °F 60.1 °F 97% 30.13 in 10.0 mi East 8.1 mph - N/A   Clear
7:49 AM 62.6 °F 62.6 °F 100% 30.12 in 10.0 mi East 11.5 mph - N/A   Partly Cloudy
7:53 AM 64.0 °F 62.1 °F 93% 30.13 in 10.0 mi East 13.8 mph - N/A   Scattered Clouds
8:53 AM 68.0 °F 63.0 °F 84% 30.12 in 10.0 mi ENE 12.7 mph - N/A   Clear
9:53 AM 71.1 °F 63.0 °F 75% 30.11 in 10.0 mi East 12.7 mph - N/A   Clear
10:53 AM 73.9 °F 64.0 °F 71% 30.11 in 10.0 mi NE 9.2 mph - N/A   Clear
11:53 AM 75.9 °F 64.9 °F 69% 30.11 in 10.0 mi East 3.5 mph - N/A   Clear
12:38 PM 69.8 °F 64.4 °F 83% 30.11 in 10.0 mi WSW 15.0 mph - N/A   Clear
12:53 PM 70.0 °F 64.9 °F 84% 30.12 in 10.0 mi SW 11.5 mph - N/A   Clear
1:53 PM 69.1 °F 63.0 °F 81% 30.13 in 10.0 mi West 13.8 mph - N/A   Clear
2:53 PM 69.1 °F 63.0 °F 81% 30.13 in 10.0 mi West 12.7 mph - N/A   Clear
3:53 PM 69.1 °F 62.1 °F 78% 30.12 in 10.0 mi WSW 11.5 mph - N/A   Clear
4:53 PM 66.0 °F 61.0 °F 84% 30.13 in 10.0 mi WSW 11.5 mph - N/A   Clear
5:53 PM 66.0 °F 59.0 °F 78% 30.12 in 10.0 mi West 4.6 mph - N/A   Clear
6:53 PM 66.0 °F 60.1 °F 81% 30.11 in 10.0 mi WSW 8.1 mph - N/A   Clear
7:53 PM 66.9 °F 59.0 °F 76% 30.10 in 10.0 mi WSW 4.6 mph - N/A   Clear
8:53 PM 64.0 °F 60.1 °F 87% 30.10 in 10.0 mi SW 3.5 mph - N/A   Clear
9:53 PM 64.0 °F 60.1 °F 87% 30.11 in 10.0 mi WSW 4.6 mph - N/A   Clear
10:53 PM 63.0 °F 61.0 °F 93% 30.12 in 10.0 mi Calm Calm - N/A   Clear
11:53 PM 63.0 °F 60.1 °F 90% 30.12 in 10.0 mi Calm Calm - N/A   Clear